Location: Newark
(21.1200°N, 73.4000°E)
Time: 06:53:35
(UTC+00:00)

Courier 1B Rocket - Pass Details

Date: 22 January 2020
Orbit: 920 x 1202 km, 28.2° (Epoch: 17 February)

Event Time Altitude Azimuth Distance (km) Brightness Sun altitude
Rises 04:40:46 0° 218° (SW) 4,027 8.3 33.9°
Reaches altitude 10° 04:44:04 10° 208° (SSW) 3,031 7.9 34.4°
Maximum altitude 04:50:19 29° 151° (SSE) 1,889 8.6 35.5°
Drops below altitude 10° 04:56:14 10° 93° (E) 2,863 8.2 36.4°
Sets 04:59:14 0° 83° (E) 3,769 8.5 36.9°
